Albany, NY

2:32 PM EST on November 11, 2019 (GMT -0500)
Albany International

Weather History for KALB - September, 2019

Change the Weather History Date:

Wednesday, September 11, 2019

  Actual Average Record
Temperature  
Mean Temperature 78 °F 64 °F  
Max Temperature 87 °F 74 °F 98 °F (1931)
Min Temperature 69 °F 54 °F 36 °F (1917)
Degree Days  
Heating Degree Days 0 3  
Month to date heating degree days 16 24  
Since 1 July heating degree days 18 47  
Cooling Degree Days 13 2  
Month to date cooling degree days 24 31  
Year to date cooling degree days 747 574  
Growing Degree Days 28 (Base 50)    
Moisture  
Dew Point 65 °F    
Average Humidity 67    
Maximum Humidity 79    
Minimum Humidity 55    
Precipitation  
Precipitation T in 0.11 in 1.53 in (1997)
Month to date precipitation 1.77 1.12  
Year to date precipitation 30.75 27.27  
Sea Level Pressure  
Sea Level Pressure 30.08 in    
Wind  
Wind Speed 10 mph (SW)    
Max Wind Speed 16 mph    
Max Gust Speed 20 mph    
Visibility 10 miles    
Events      
T = Trace of Precipitation, MM = Missing Value Source: NWS Daily Summary

Daily Weather History Graph

Daily Weather History Graph

Search for Another Location

Airport or City:

Astronomy

Sep. 11, 2019 Rise Set
Actual Time 6:30 AM EDT 7:12 PM EDT
Civil Twilight 6:01 AM EDT 7:41 PM EDT
Nautical Twilight 5:27 AM EDT 8:14 PM EDT
Astronomical Twilight 4:52 AM EDT 8:49 PM EDT
Moon 6:27 PM EDT 3:45 AM EDT
Length of Visible Light 13h 39m
Length of Day
12h 42m
Waxing Gibbous, 94% of the Moon is Illuminated
Sep 11
Waxing Gibbous
Sep 14
Full
Sep 21
Last Quarter
Sep 28
New
Oct 5
First Quarter

Hourly Weather History & Observations

Time (EDT) Temp. Heat Index Dew Point Humidity Pressure Visibility Wind Dir Wind Speed Gust Speed Precip Events Conditions
12:51 AM 71.1 °F - 63.0 °F 75% 30.16 in 10.0 mi South 10.4 mph - N/A   Overcast
1:51 AM 71.1 °F - 63.0 °F 75% 30.14 in 10.0 mi South 9.2 mph - N/A   Overcast
2:51 AM 70.0 °F - 63.0 °F 78% 30.13 in 10.0 mi SSE 10.4 mph - N/A   Overcast
3:51 AM 70.0 °F - 63.0 °F 78% 30.12 in 10.0 mi South 11.5 mph - N/A   Overcast
4:51 AM 70.0 °F - 63.0 °F 78% 30.12 in 10.0 mi South 10.4 mph - N/A   Overcast
5:51 AM 69.1 °F - 63.0 °F 81% 30.15 in 10.0 mi South 6.9 mph - N/A   Overcast
6:51 AM 69.1 °F - 62.1 °F 78% 30.14 in 10.0 mi South 12.7 mph - N/A   Overcast
7:51 AM 69.1 °F - 63.0 °F 81% 30.11 in 10.0 mi South 10.4 mph - 0.00 in   Mostly Cloudy
8:51 AM 71.1 °F - 64.0 °F 78% 30.12 in 10.0 mi SSE 8.1 mph - N/A   Scattered Clouds
9:51 AM 73.9 °F - 64.9 °F 73% 30.11 in 10.0 mi South 9.2 mph - N/A   Scattered Clouds
10:51 AM 75.9 °F - 64.9 °F 69% 30.10 in 10.0 mi South 9.2 mph - N/A   Mostly Cloudy
11:51 AM 80.1 °F 82.3 °F 66.9 °F 64% 30.08 in 10.0 mi South 6.9 mph - N/A   Mostly Cloudy
12:51 PM 84.0 °F 87.0 °F 68.0 °F 58% 30.06 in 10.0 mi West 6.9 mph - N/A   Scattered Clouds
1:51 PM 84.0 °F 87.0 °F 68.0 °F 58% 30.05 in 10.0 mi West 5.8 mph - N/A   Mostly Cloudy
2:51 PM 84.9 °F 88.2 °F 68.0 °F 57% 30.03 in 10.0 mi North 3.5 mph - N/A   Scattered Clouds
3:51 PM 86.0 °F 89.4 °F 68.0 °F 55% 30.02 in 10.0 mi NNW 12.7 mph - N/A   Scattered Clouds
4:51 PM 84.9 °F 86.6 °F 64.9 °F 51% 30.01 in 10.0 mi NW 12.7 mph - N/A   Scattered Clouds
5:51 PM 82.9 °F 84.4 °F 64.0 °F 53% 30.01 in 10.0 mi WNW 10.4 mph - N/A   Scattered Clouds
6:51 PM 80.1 °F 81.7 °F 64.0 °F 58% 30.01 in 10.0 mi WNW 9.2 mph - N/A   Scattered Clouds
7:51 PM 78.1 °F - 64.0 °F 62% 30.03 in 10.0 mi WNW 9.2 mph - N/A   Partly Cloudy
8:51 PM 73.9 °F - 64.0 °F 71% 30.04 in 10.0 mi West 6.9 mph - N/A   Partly Cloudy
9:51 PM 73.9 °F - 64.9 °F 73% 30.05 in 10.0 mi West 9.2 mph - N/A   Partly Cloudy
10:51 PM 72.0 °F - 64.0 °F 76% 30.04 in 10.0 mi West 4.6 mph - N/A   Partly Cloudy
11:51 PM 70.0 °F - 64.0 °F 81% 30.04 in 10.0 mi Calm Calm - N/A   Scattered Clouds